Voltar ao catálogo

RAVEN

AtivoMilitarSSO
NORAD 69016·PAYLOAD·🇺🇸 United States

Lançado May 3, 2026 de Vandenberg Space Force Base

Loading…

Próximas Passagens (próximas 24 horas)

TLE

AtualizadoSource: Space-Track

Época: Sep 14, 2026, 12:02 UTC

1 69016U 26100AN  26257.50188109  .00001944  00000-0  88818-4 0  9990
2 69016  97.3902 153.8519 0009634  95.6011 264.6324 15.21728772 20393

Acompanhe RAVEN em tempo real com AllMySat

Download on the App Store